Weather History for Morrisville, VT

Change the Weather History Date:

Wednesday, November 21, 2012

  Actual Average Record
Temperature  
Mean Temperature 38 °F 33 °F  
Max Temperature 52 °F 42 °F 54 °F (2005)
Min Temperature 23 °F 24 °F 14 °F (2013)
Degree Days  
Heating Degree Days 27 32  
Month to date heating degree days 616 591  
Since 1 July heating degree days 1344 1522  
Cooling Degree Days 0 0  
Month to date cooling degree days 0 0  
Year to date cooling degree days 408 265  
Moisture  
Dew Point 25 °F    
Average Humidity 61    
Maximum Humidity 92    
Minimum Humidity 30    
Precipitation  
Precipitation 0.00 in 0.10 in 0.59 in (2007)
Month to date precipitation 0.64 2.17  
Year to date precipitation 18.78 32.41  
Sea Level Pressure  
Sea Level Pressure 30.25 in    
Wind  
Wind Speed 0 mph (SE)    
Max Wind Speed 7 mph    
Max Gust Speed 9 mph    
Visibility 10 miles    
Events      
T = Trace of Precipitation, MM = Missing Value Source: NWS Daily Summary

Daily Weather History Graph

Daily Weather History Graph

Search for Another Location

Airport:

Trip Planner

Search our weather history database for the weather conditions in past years. The results will help you decide how hot, cold, wet, or windy it might be!

Date:

Astronomy

Nov. 21, 2012 Rise Set
Actual Time 6:55 AM EST 4:17 PM EST
Civil Twilight 6:23 AM EST 4:49 PM EST
Nautical Twilight 5:47 AM EST 5:24 PM EST
Astronomical Twilight 5:12 AM EST 5:59 PM EST
Moon 12:45 PM EST (11/21) No Moon Set
Length of Visible Light 10h 25m
Length of Day
9h 21m
First Quarter, 61% of the Moon is Illuminated
Nov 21
First Quarter
Nov 28
Full
Dec 6
Last Quarter
Dec 13
New
Dec 20
First Quarter

Hourly Weather History & Observations

Time (EST) Temp. Dew Point Humidity Pressure Visibility Wind Dir Wind Speed Gust Speed Precip Events Conditions
12:54 AM 30.0 °F 27.0 °F 88% 30.21 in 10.0 mi Calm Calm - N/A   Overcast
1:54 AM 30.9 °F 27.0 °F 85% 30.22 in 9.0 mi Calm Calm - N/A   Mostly Cloudy
2:54 AM 30.0 °F 27.0 °F 88% 30.22 in 10.0 mi Calm Calm - N/A   Overcast
3:54 AM 28.9 °F 26.1 °F 89% 30.22 in 9.0 mi Calm Calm - N/A   Overcast
4:54 AM 28.9 °F 26.1 °F 89% 30.24 in 9.0 mi Calm Calm - N/A   Overcast
5:54 AM 28.9 °F 26.1 °F 89% 30.26 in 9.0 mi Calm Calm - N/A   Mostly Cloudy
6:54 AM 28.0 °F 25.0 °F 88% 30.28 in 9.0 mi Calm Calm - N/A   Mostly Cloudy
7:54 AM 28.9 °F 27.0 °F 92% 30.29 in 7.0 mi Calm Calm - N/A   Overcast
8:54 AM 30.9 °F 28.0 °F 89% 30.29 in 7.0 mi Calm Calm - N/A   Clear
9:54 AM 37.0 °F 28.9 °F 73% 30.28 in 10.0 mi Calm Calm - N/A   Clear
10:54 AM 44.1 °F 30.0 °F 58% 30.26 in 10.0 mi Calm Calm - N/A   Clear
11:54 AM 48.0 °F 28.0 °F 46% 30.24 in 10.0 mi Calm Calm - N/A   Clear
12:54 PM 50.0 °F 25.0 °F 38% 30.22 in 10.0 mi Calm Calm - N/A   Clear
1:54 PM 52.0 °F 23.0 °F 32% 30.21 in 10.0 mi SE 3.5 mph - N/A   Clear
2:54 PM 52.0 °F 21.0 °F 30% 30.22 in 10.0 mi Calm Calm - N/A   Clear
3:54 PM 44.1 °F 25.0 °F 47% 30.23 in 10.0 mi Calm Calm - N/A   Clear
4:54 PM 36.0 °F 25.0 °F 64% 30.25 in 10.0 mi Calm Calm - N/A   Clear
5:54 PM 33.1 °F 23.0 °F 66% 30.26 in 10.0 mi Calm Calm - N/A   Clear
6:54 PM 28.9 °F 21.9 °F 75% 30.27 in 10.0 mi Calm Calm - N/A   Clear
7:54 PM 28.9 °F 23.0 °F 78% 30.27 in 10.0 mi Calm Calm - N/A   Clear
8:54 PM 26.1 °F 21.0 °F 81% 30.27 in 10.0 mi Calm Calm - N/A   Clear
9:54 PM 27.0 °F 21.9 °F 81% 30.27 in 10.0 mi Calm Calm - N/A   Clear
10:54 PM 26.1 °F 21.9 °F 84% 30.27 in 10.0 mi Calm Calm - N/A   Clear
11:54 PM 24.1 °F 19.9 °F 84% 30.27 in 10.0 mi Calm Calm - N/A   Clear